AQT-D

Last updated on Thu Apr 21 2022 00:02:04 GMT+0000 (Coordinated Universal Time)

1 44791U 98067QW 22110.43976283 .06942543 12381-4 78632-3 0 9994 2 44791 51.6057 190.5835 0007794 324.7317 35.3191 16.36070405137708

Satellite not in orbit